Starlink 11683

operational
NORAD ID: 64239 Int'l Des: 2025-119 Owner: SPXS Country: US Constellation: starlink
LEOCIRCULAR

Über Starlink 11683

Beschreibung wird geladen...

Live-Position

3D-Globus wird geladen...

Nächste Überflüge

Höhenverlauf

Altitude vs Time

uPlot chart will show altitude changes over time

Zweizeiliger Elementsatz

1 64239U 25119G 26095.55643446 .00262819 00000-0 19844-2 0 9997
2 64239 43.0002 46.8569 0001580 331.7424 28.3358 15.70878474 49475
Epoch: 5. Apr. 2026 • Age: 8 hours

Aktueller Status

Höhe 359.4 km
Geschwindigkeit 7.70 km/s
Subsatellitenpunkt 41.95°N, 4.07°W
Startdatum 3. Juni 2025
Alter 0.8 years
Typ internet

Technische Details

Klassifizierung Payload
Masse 960.00 kg
Trockenmasse 910.00 kg
Gesamtmasse 960.00 kg
Länge 0.30 m
Durchmesser 4.10 m
Spannweite 29.00 m
Form Box + pan
Hersteller SPXS
Bus-Typ Starlink V2MD
Phasenstatus In Orbit
Besitzer/Staat SPXS/US

Große Konstellationen

Loading constellations...